Weather History for KMPO - August, 2014

Change the Weather History Date:

Tuesday, August 12, 2014

  Actual Average Record
Temperature  
Mean Temperature 66 °F 67 °F  
Max Temperature 68 °F 77 °F 91 °F (1944)
Min Temperature 63 °F 58 °F 38 °F (1930)
Degree Days  
Heating Degree Days 0 1  
Month to date heating degree days 5 12  
Since 1 June heating degree days 84 134  
Since 1 July heating degree days 29 34  
Cooling Degree Days 1 4  
Month to date cooling degree days 19 48  
Year to date cooling degree days 194 250  
Since 1 June cooling degree days 187 231  
Growing Degree Days 16 (Base 50)    
Moisture  
Dew Point 62 °F    
Average Humidity 94    
Maximum Humidity 100    
Minimum Humidity 87    
Precipitation  
Precipitation 0.80 in 0.13 in 4.71 in (2004)
Month to date precipitation 0.80 1.89  
Year to date precipitation 26.70 28.41  
Sea Level Pressure  
Sea Level Pressure 30.01 in    
Wind  
Wind Speed 13 mph (SE)    
Max Wind Speed 26 mph    
Max Gust Speed 37 mph    
Visibility 5 miles    
Events Fog , Rain    
T = Trace of Precipitation, MM = Missing Value Source: NWS Daily Summary

Daily Weather History Graph

Daily Weather History Graph

Search for Another Location

Airport or City:

Trip Planner

Search our weather history database for the weather conditions in past years. The results will help you decide how hot, cold, wet, or windy it might be!

Date:

Astronomy

Aug. 12, 2014 Rise Set
Actual Time 6:07 AM EDT 8:04 PM EDT
Civil Twilight 5:38 AM EDT 8:34 PM EDT
Nautical Twilight 5:01 AM EDT 9:10 PM EDT
Astronomical Twilight 4:22 AM EDT 9:49 PM EDT
Moon 9:08 PM EDT (8/12) 8:24 AM EDT (8/12)
Length of Visible Light 14h 56m
Length of Day
13h 56m
Waning Gibbous, 95% of the Moon is Illuminated
Aug 12
Waning Gibbous
Aug 17
Last Quarter
Aug 25
New
Sep 2
First Quarter
Sep 8
Full

Hourly Weather History & Observations

Time (EDT) Temp. Dew Point Humidity Pressure Visibility Wind Dir Wind Speed Gust Speed Precip Events Conditions
12:28 AM 64.0 °F 59.0 °F 84% 30.12 in 10.0 mi SSE 9.2 mph - N/A   Mostly Cloudy
12:53 AM 64.0 °F 60.1 °F 87% 30.09 in 10.0 mi SSE 10.4 mph - N/A   Mostly Cloudy
1:53 AM 64.9 °F 60.1 °F 84% 30.07 in 10.0 mi South 10.4 mph - N/A   Overcast
2:39 AM 64.9 °F 61.0 °F 87% 30.09 in 10.0 mi South 15.0 mph 21.9 mph N/A   Overcast
2:53 AM 64.9 °F 61.0 °F 87% 30.05 in 10.0 mi SSE 12.7 mph - N/A   Overcast
3:10 AM 64.9 °F 61.0 °F 87% 30.08 in 10.0 mi South 10.4 mph 18.4 mph N/A   Overcast
3:31 AM 64.9 °F 61.0 °F 87% 30.07 in 10.0 mi SSE 11.5 mph 20.7 mph N/A   Overcast
3:43 AM 64.9 °F 62.1 °F 90% 30.07 in 8.0 mi SSE 11.5 mph - 0.00 in Rain Light Rain
3:51 AM 64.4 °F 62.6 °F 94% 30.07 in 9.0 mi SSE 13.8 mph - 0.00 in Rain Light Rain
3:53 AM 64.9 °F 62.1 °F 90% 30.04 in 9.0 mi SSE 10.4 mph - 0.00 in Rain Light Rain
4:37 AM 64.0 °F 62.1 °F 93% 30.06 in 9.0 mi SSE 12.7 mph 20.7 mph 0.00 in   Overcast
4:45 AM 64.0 °F 62.1 °F 93% 30.05 in 6.0 mi SSE 13.8 mph 19.6 mph 0.00 in Rain Light Rain
4:53 AM 64.0 °F 62.1 °F 93% 30.02 in 5.0 mi SSE 17.3 mph 21.9 mph 0.01 in Rain Light Rain
5:35 AM 64.0 °F 62.1 °F 93% 30.05 in 1.8 mi SE 13.8 mph - 0.03 in Rain Light Rain
5:44 AM 64.0 °F 62.1 °F 93% 30.05 in 0.8 mi SSE 13.8 mph 24.2 mph 0.03 in Rain Light Rain
5:49 AM 64.4 °F 62.6 °F 94% 30.05 in 2.0 mi SE 10.4 mph 20.7 mph 0.05 in Rain Rain
5:53 AM 64.0 °F 63.0 °F 96% 30.01 in 2.5 mi SE 16.1 mph 26.5 mph 0.06 in Rain Rain
6:06 AM 64.0 °F 62.1 °F 93% 30.05 in 3.0 mi SE 11.5 mph 21.9 mph 0.03 in Rain Light Rain
6:31 AM 64.0 °F 62.1 °F 93% 30.05 in 1.8 mi SE 16.1 mph - 0.07 in Rain Light Rain
6:53 AM 64.0 °F 62.1 °F 93% 30.02 in 2.0 mi SSE 16.1 mph 23.0 mph 0.10 in Rain Light Rain
6:59 AM 64.0 °F 62.1 °F 93% 30.05 in 0.8 mi SE 11.5 mph 23.0 mph 0.00 in Rain Light Rain
7:14 AM 64.0 °F 62.1 °F 93% 30.05 in 2.0 mi SE 17.3 mph 25.3 mph 0.01 in Rain Light Rain
7:18 AM 64.0 °F 62.1 °F 93% 30.05 in 0.8 mi SE 12.7 mph 25.3 mph 0.01 in Rain Light Rain
7:37 AM 64.0 °F 62.1 °F 93% 30.05 in 1.0 mi SE 16.1 mph 23.0 mph 0.02 in Rain Light Rain
7:46 AM 64.0 °F 62.1 °F 93% 30.05 in 0.2 mi SE 15.0 mph 21.9 mph 0.02 in Fog , Rain Light Rain
7:53 AM 64.0 °F 62.1 °F 93% 30.02 in 0.2 mi SE 11.5 mph - 0.02 in Fog , Rain Light Rain
8:53 AM 64.0 °F 63.0 °F 96% 30.02 in 0.2 mi SSE 13.8 mph 23.0 mph 0.08 in Fog , Rain Light Rain
9:07 AM 64.0 °F 63.0 °F 96% 30.04 in 1.0 mi SE 16.1 mph 26.5 mph 0.02 in Rain Light Rain
9:22 AM 64.9 °F 63.0 °F 93% 30.03 in 0.2 mi SSE 11.5 mph 20.7 mph 0.02 in Fog , Rain Light Rain
9:28 AM 64.9 °F 63.0 °F 93% 30.03 in 0.5 mi South 16.1 mph 36.8 mph 0.03 in Fog , Rain Light Rain
9:35 AM 64.9 °F 63.0 °F 93% 30.03 in 2.5 mi SSE 13.8 mph 24.2 mph 0.03 in Rain Light Rain
9:53 AM 64.9 °F 63.0 °F 93% 30.01 in 3.0 mi SSE 15.0 mph 24.2 mph 0.04 in Rain Light Rain
10:30 AM 64.9 °F 63.0 °F 93% 30.03 in 2.5 mi SE 18.4 mph 27.6 mph 0.01 in Rain Light Rain
10:32 AM 64.9 °F 63.0 °F 93% 30.03 in 0.8 mi SSE 16.1 mph 27.6 mph 0.01 in   Mist
10:44 AM 66.0 °F 64.0 °F 93% 30.03 in 0.2 mi SSE 15.0 mph 24.2 mph 0.01 in Fog , Rain Light Rain
10:53 AM 66.0 °F 64.0 °F 93% 30.01 in 0.5 mi SE 12.7 mph - 0.01 in Fog Fog
11:18 AM 66.0 °F 64.0 °F 93% 30.03 in 1.2 mi SSE 12.7 mph - 0.07 in Rain Light Rain
11:31 AM 66.0 °F 64.0 °F 93% 30.04 in 0.8 mi South 9.2 mph 17.3 mph 0.23 in Rain Heavy Rain
11:37 AM 66.0 °F 64.0 °F 93% 30.04 in 2.0 mi SSE 11.5 mph - 0.26 in Rain Light Rain
11:44 AM 66.0 °F 63.0 °F 90% 30.04 in 5.0 mi SSE 13.8 mph 21.9 mph 0.27 in Rain Light Rain
11:53 AM 66.0 °F 64.0 °F 93% 30.01 in 5.0 mi South 12.7 mph 21.9 mph 0.28 in Rain Light Rain
12:05 PM 66.9 °F 63.0 °F 87% 30.03 in 10.0 mi SSE 17.3 mph 25.3 mph 0.00 in Rain Light Rain
1:50 PM 64.4 °F 60.8 °F 88% 30.02 in 2.0 mi SSE 16.1 mph 25.3 mph 0.14 in Rain Light Rain
1:53 PM 64.9 °F 62.1 °F 90% 29.99 in 4.0 mi SE 11.5 mph 24.2 mph 0.14 in Rain Light Rain
2:02 PM 66.0 °F 63.0 °F 90% 30.01 in 10.0 mi SE 11.5 mph 21.9 mph 0.00 in Rain Light Rain
2:53 PM 68.0 °F 64.0 °F 87% 29.97 in 10.0 mi SE 12.7 mph 19.6 mph 0.03 in   Unknown
3:10 PM 66.9 °F 64.9 °F 93% 29.99 in 10.0 mi ESE 12.7 mph - N/A   Overcast
3:24 PM 68.0 °F 64.9 °F 90% 29.98 in 10.0 mi SE 13.8 mph 24.2 mph N/A   Overcast
3:53 PM 68.0 °F 64.0 °F 87% 29.95 in 10.0 mi SE 15.0 mph - N/A   Overcast
4:22 PM 68.0 °F 64.9 °F 90% 29.96 in 10.0 mi SE 13.8 mph 23.0 mph 0.00 in   Overcast
4:44 PM 66.9 °F 64.0 °F 90% 29.96 in 1.8 mi SE 16.1 mph 23.0 mph 0.00 in Rain Light Rain
4:53 PM 66.9 °F 64.0 °F 90% 29.94 in 2.0 mi SSE 13.8 mph - 0.01 in Rain Light Rain
4:59 PM 66.9 °F 64.0 °F 90% 29.97 in 3.0 mi SSE 13.8 mph - 0.00 in Rain Light Rain
5:07 PM 66.9 °F 64.0 °F 90% 29.96 in 5.0 mi SSE 12.7 mph - 0.00 in Rain Light Rain
5:22 PM 66.0 °F 64.0 °F 93% 29.96 in 2.5 mi SE 16.1 mph - 0.01 in Rain Light Rain
5:26 PM 66.0 °F 63.0 °F 90% 29.96 in 3.0 mi SSE 17.3 mph - 0.01 in Rain Light Rain
5:42 PM 66.0 °F 64.0 °F 93% 29.96 in 4.0 mi SSE 15.0 mph - 0.01 in Rain Light Rain
5:53 PM 66.0 °F 64.0 °F 93% 29.94 in 7.0 mi SSE 18.4 mph 25.3 mph 0.01 in Rain Light Rain
6:28 PM 66.0 °F 62.1 °F 87% 29.95 in 10.0 mi SE 15.0 mph 25.3 mph 0.00 in   Overcast
6:53 PM 64.9 °F 61.0 °F 87% 29.94 in 10.0 mi SSE 15.0 mph 23.0 mph 0.00 in   Overcast
7:53 PM 64.0 °F 61.0 °F 90% 29.93 in 10.0 mi SE 15.0 mph 27.6 mph N/A   Overcast
8:29 PM 63.0 °F 61.0 °F 93% 29.94 in 10.0 mi SE 10.4 mph - N/A   Overcast
8:36 PM 63.0 °F 61.0 °F 93% 29.94 in 10.0 mi SE 12.7 mph - N/A   Overcast
8:53 PM 63.0 °F 60.1 °F 90% 29.92 in 10.0 mi SE 15.0 mph - N/A   Overcast
9:53 PM 63.0 °F 60.1 °F 90% 29.91 in 10.0 mi ESE 8.1 mph - N/A   Overcast
10:29 PM 63.0 °F 60.1 °F 90% 29.93 in 10.0 mi SE 9.2 mph - 0.00 in   Overcast
10:53 PM 63.0 °F 61.0 °F 93% 29.90 in 10.0 mi SE 10.4 mph - 0.00 in   Overcast
11:31 PM 64.0 °F 61.0 °F 90% 29.90 in 10.0 mi ESE 9.2 mph - N/A   Overcast
11:53 PM 63.0 °F 62.1 °F 97% 29.86 in 8.0 mi ESE 8.1 mph - 0.00 in   Overcast